sat.trackr.live / text

‹ back to catalog

TIANLIAN 1-05

NORAD 49011 · 2021-063A

PAYLOAD ACTIVE UNKNOWN

§ Identity

Operator
Country
PRC
Launch date
2021-07-06
Launch site
XICLF
Launch vehicle
Mass (kg)
RCS (m²)

Purposes: comms

External: N2YO · Heavens-Above · Gunter

§ Orbital elements

Epoch: 2026-05-25T03:49:24.302784Z

Period
1,436.08 min
Inclination
1.5367°
Eccentricity
0.0001493
Mean motion
1.00273095 rev/d
Perigee alt
35,779.9 km
Apogee alt
35,792.5 km
Semi-major
42,164.4 km
B*
0.0000e+0
RAAN
80.8797°
Arg perigee
290.5585°
Mean anomaly
305.4325°
Rev number
1,784

§ Raw data

TIANLIAN 1-051 49011U 21063A   26145.15930906  .00000106  00000+0  00000+0 0  99932 49011   1.5367  80.8797 0001493 290.5585 305.4325  1.00273095 17848

JSON: /api/v1/satellites/49011 · /tle

For live sub-satellite position, see the globe view (requires WebGL).

§ Visibility from observer

Set your observer location to see the next 7 days of passes ≥ 10°. The values pass through the URL so the page stays shareable.

No JS? Fill the form by hand. The geolocation button needs JavaScript.